Location: Clarion
(42.7316°N, 93.7330°W)
Time: 09:12:12
(UTC+00:00)

AQUA - Pass Details

Date: 22 April 2026
Orbit: 685 x 688 km, 98.4° (Epoch: 17 May)

Event Time Altitude Azimuth Distance (km) Brightness Sun altitude
Rises 10:13:58 0° 10° (N) 3,061 7.7 -12.3°
Reaches altitude 10° 10:16:14 10° 8° (N) 2,141 6.8 -12.0°
Maximum altitude 10:20:52 65° 287° (WNW) 753 3.8 -11.2°
Drops below altitude 10° 10:25:28 10° 206° (SSW) 2,125 5.8 -10.5°
Enters shadow 10:26:03 - 205° (SSW) 2,364 6.1 -10.4°
